User: anonymous   Login
Location: NJAA Observatory
(40.6819°N, 74.8979°W)
Time: 08:27:20
(UTC-04:00)
Language:

ATLAS CENTAUR R/B - Orbit

View from above orbital plane
View from above orbital plane
View from above satellite
View from above satellite

Ground track
Ground track

The orbit data is extracted from the following two-line orbital elements,

1 28385U 04034B   15147.96163673 0.00042000  00000-0  12784-2 0    09
2 28385  57.3094 122.9823 3947992 102.1541 303.8019  7.59349848    01
Epoch (UTC): 27 May 2015 23:04:45
Eccentricity: 0.3947992
inclination: 57.3094°
perigee height: 239 km
apogee height: 8872 km
right ascension of ascending node: 122.9823°
argument of perigee: 102.1541°
revolutions per day: 7.59349848
mean anomaly at epoch: 303.8019°
orbit number at epoch: 0

The dashed part of the orbit path shows where the satellite is in the earth's shadow,  

DLR